Avoca, PA

11:13 PM EDT on September 18, 2019 (GMT -0400)
Wilkes-Barre-Scranton International

Weather History for KAVP - July, 2019

Change the Weather History Date:

Sunday, July 14, 2019

  Actual Average Record
Temperature  
Mean Temperature 76 °F 72 °F  
Max Temperature 87 °F 82 °F 100 °F (1936)
Min Temperature 64 °F 61 °F 48 °F (1904)
Degree Days  
Heating Degree Days 0 0  
Month to date heating degree days 0 0  
Since 1 June heating degree days 32 54  
Since 1 July heating degree days 0 0  
Cooling Degree Days 11 7  
Month to date cooling degree days 151 93  
Year to date cooling degree days 316 247  
Since 1 June cooling degree days 266 210  
Growing Degree Days 28 (Base 50)    
Moisture  
Dew Point 61 °F    
Average Humidity 61    
Maximum Humidity 84    
Minimum Humidity 37    
Precipitation  
Precipitation 0.00 in 0.12 in 1.69 in (2017)
Month to date precipitation 3.92 1.64  
Year to date precipitation 28.62 19.47  
Sea Level Pressure  
Sea Level Pressure 29.98 in    
Wind  
Wind Speed 7 mph (NW)    
Max Wind Speed 16 mph    
Max Gust Speed 22 mph    
Visibility 10 miles    
Events      
T = Trace of Precipitation, MM = Missing Value Source: NWS Daily Summary

Daily Weather History Graph

Daily Weather History Graph

Search for Another Location

Airport or City:

Astronomy

Jul. 14, 2019 Rise Set
Actual Time 5:41 AM EDT 8:35 PM EDT
Civil Twilight 5:08 AM EDT 9:08 PM EDT
Nautical Twilight 4:27 AM EDT 9:49 PM EDT
Astronomical Twilight 3:38 AM EDT 10:37 PM EDT
Moon 6:56 PM EDT (7/14) 3:41 AM EDT (7/14)
Length of Visible Light 15h 59m
Length of Day
14h 53m
Waxing Gibbous, 95% of the Moon is Illuminated
Jul 14
Waxing Gibbous
Jul 16
Full
Jul 24
Last Quarter
Jul 31
New
Aug 7
First Quarter

Hourly Weather History & Observations

Time (EDT) Temp. Heat Index Dew Point Humidity Pressure Visibility Wind Dir Wind Speed Gust Speed Precip Events Conditions
12:54 AM 70.0 °F - 64.0 °F 81% 29.93 in 10.0 mi Calm Calm - N/A   Clear
1:54 AM 70.0 °F - 64.0 °F 81% 29.93 in 10.0 mi Calm Calm - N/A   Clear
2:54 AM 69.1 °F - 64.0 °F 84% 29.92 in 10.0 mi Calm Calm - N/A   Mostly Cloudy
3:54 AM 71.1 °F - 64.0 °F 78% 29.92 in 10.0 mi SW 4.6 mph - N/A   Scattered Clouds
4:54 AM 72.0 °F - 63.0 °F 73% 29.93 in 10.0 mi SSW 6.9 mph - N/A   Clear
5:54 AM 73.0 °F - 62.1 °F 68% 29.94 in 10.0 mi WSW 4.6 mph - N/A   Clear
6:54 AM 72.0 °F - 63.0 °F 73% 29.95 in 9.0 mi SW 3.5 mph - N/A   Partly Cloudy
7:29 AM 73.0 °F - 64.0 °F 73% 29.99 in 9.0 mi SSW 4.6 mph - N/A   Mostly Cloudy
7:54 AM 73.9 °F - 64.9 °F 73% 29.97 in 9.0 mi SW 4.6 mph - N/A   Overcast
8:33 AM 75.9 °F - 64.9 °F 69% 30.00 in 10.0 mi WSW 5.8 mph - N/A   Scattered Clouds
8:54 AM 78.1 °F - 66.0 °F 66% 29.98 in 9.0 mi NW 6.9 mph - N/A   Partly Cloudy
9:11 AM 77.0 °F - 64.9 °F 66% 30.01 in 10.0 mi NW 10.4 mph - N/A   Scattered Clouds
9:54 AM 79.0 °F - 62.1 °F 56% 29.97 in 10.0 mi NNW 9.2 mph - N/A   Clear
10:54 AM 82.0 °F 83.0 °F 62.1 °F 51% 29.98 in 10.0 mi NW 9.2 mph - N/A   Scattered Clouds
11:54 AM 82.9 °F 83.3 °F 61.0 °F 47% 29.99 in 10.0 mi NW 12.7 mph - N/A   Scattered Clouds
12:54 PM 82.9 °F 82.4 °F 57.0 °F 41% 29.99 in 10.0 mi WNW 8.1 mph 16.1 mph N/A   Clear
1:54 PM 84.9 °F 84.2 °F 57.9 °F 40% 29.98 in 10.0 mi North 9.2 mph - N/A   Scattered Clouds
2:54 PM 86.0 °F 85.0 °F 57.9 °F 38% 29.97 in 10.0 mi West 15.0 mph 20.7 mph N/A   Mostly Cloudy
3:54 PM 86.0 °F 84.9 °F 57.0 °F 37% 29.98 in 10.0 mi NW 9.2 mph - N/A   Clear
4:54 PM 84.9 °F 83.7 °F 55.9 °F 37% 29.98 in 10.0 mi WNW 13.8 mph - N/A   Clear
5:54 PM 84.0 °F 83.0 °F 55.9 °F 38% 29.99 in 10.0 mi NNW 13.8 mph - N/A   Clear
6:54 PM 82.9 °F 82.1 °F 55.9 °F 39% 29.99 in 10.0 mi NNW 10.4 mph 19.6 mph N/A   Clear
7:54 PM 80.1 °F 80.4 °F 57.0 °F 45% 30.00 in 10.0 mi NNW 8.1 mph - N/A   Clear
8:54 PM 75.9 °F - 59.0 °F 56% 30.01 in 10.0 mi North 4.6 mph - N/A   Clear
9:54 PM 73.0 °F - 60.1 °F 64% 30.02 in 10.0 mi North 4.6 mph - N/A   Clear
10:54 PM 72.0 °F - 59.0 °F 64% 30.04 in 10.0 mi NNW 3.5 mph - N/A   Clear
11:54 PM 69.1 °F - 60.1 °F 73% 30.06 in 10.0 mi NE 3.5 mph - N/A   Clear